[[[{"header":{"parameterUnit":"kt","parameterCategory":2,"dx":1,"dy":1,"la1":30.253999710083008,"la2":30.299108505249023,"lo1":-89.0895004272461,"lo2":-89.04439544677734,"nx":28,"ny":28,"refTime":"2022-10-13T21:00:00:Z","depth":0,"parameterNumber":1,"parameterNumberName":"U-component_of_WINDS"},"data":[-1.5895,-1.5974,-1.5975,-1.6065,-1.6081,-1.6144,-1.6167,-1.6197,-1.6221,-1.6296,-1.6339,-1.6349,-1.6374,-1.6427,-1.6475,-1.6478,-1.65,-1.6526,-1.6526,-1.6406,-1.639,-1.6374,-1.6356,-1.653,-1.653,-1.6651,-1.6652,-1.6653,-1.5804,-1.5821,-1.5869,-1.5917,-1.5958,-1.5933,-1.5969,-1.6006,-1.6063,-1.6093,-1.6136,-1.6203,-1.6256,-1.6274,-1.6325,-1.6363,-1.6356,-1.6377,-1.6376,-1.6381,-1.6252,-1.6233,-1.6382,-1.6382,-1.6382,-1.6382,-1.6382,-1.6382,-1.5639,-1.5686,-1.5716,-1.5769,-1.5793,-1.5825,-1.5871,-1.5882,-1.593,-1.5984,-1.5977,-1.6042,-1.6074,-1.6138,-1.616,-1.6212,-1.6189,-1.6214,-1.6221,-1.6228,-1.6235,-1.6062,-1.622,-1.622,-1.622,-1.6219,-1.6219,0,-1.552,-1.5517,-1.5564,-1.5611,-1.565,-1.5687,-1.5722,-1.575,-1.5748,-1.5788,-1.5846,-1.588,-1.5948,-1.6004,-1.6054,-1.6072,-1.6054,-1.6052,-1.6069,-1.6076,-1.6073,-1.6077,-1.5869,-1.6048,-1.6047,-1.6046,-1.6045,-1.6044,-1.5356,-1.5411,-1.5443,-1.5476,-1.5495,-1.5548,-1.5581,-1.5574,-1.5609,-1.5651,-1.5694,-1.575,-1.5794,-1.5889,-1.5904,-1.5955,-1.5947,-1.6016,-1.5955,-1.5957,-1.5951,-1.5949,-1.5955,-1.6029,-1.6031,-1.6032,-1.6034,0,-1.5263,-1.5266,-1.5352,-1.5379,-1.5388,-1.5446,-1.547,-1.5518,-1.5524,-1.5591,-1.5606,-1.5617,-1.5676,-1.5679,-1.5747,-1.5748,-1.5846,-1.5835,-1.5834,-1.5833,-1.5896,-1.5891,-1.6097,-1.6124,-1.5942,-1.5943,-1.5945,0,-1.5126,-1.5199,-1.5199,-1.5249,-1.5329,-1.5322,-1.5402,-1.5416,-1.5443,-1.5496,-1.5474,-1.5524,-1.5521,-1.5572,-1.5573,-1.5653,-1.5666,-1.5672,-1.5672,-1.5676,-1.5675,-1.5698,-1.5691,-1.5667,-1.5666,-1.5665,-1.5664,0,-1.4984,-1.5069,-1.515,-1.517,-1.5208,-1.5246,-1.5264,-1.5295,-1.5328,-1.537,-1.5391,-1.5442,-1.547,-1.551,-1.5511,-1.547,-1.5609,-1.5553,-1.5615,-1.5616,-1.5649,-1.5648,-1.5825,-1.5663,-1.5663,-1.5663,-1.5662,0,-1.4875,-1.4917,-1.5033,-1.5064,-1.5087,-1.5141,-1.5189,-1.5236,-1.5271,-1.5275,-1.5309,-1.5296,-1.5366,-1.531,-1.5406,-1.5352,-1.5382,-1.5394,-1.5398,-1.5408,-1.5347,-1.5449,-1.5616,-1.5635,-1.5412,-1.541,-1.5408,0,-1.4712,-1.483,-1.4825,-1.4936,-1.4992,-1.4964,-1.5023,-1.5055,-1.5065,-1.5114,-1.5125,-1.5183,-1.5142,-1.5161,-1.5207,-1.5223,-1.5292,-1.5213,-1.5287,-1.529,-1.5281,-1.5433,-1.5459,-1.5578,-1.5381,-1.5384,-1.5386,0,-1.4587,-1.4632,-1.4653,-1.4676,-1.4717,-1.4764,-1.4831,-1.4886,-1.4919,-1.4957,-1.5015,-1.5094,-1.5067,-1.5099,-1.5095,-1.5144,-1.5245,-1.5109,-1.511,-1.5135,-1.5368,-1.5391,-1.5411,-1.5231,-1.5235,-1.5237,-1.5365,0,-1.4425,-1.4485,-1.4539,-1.4592,-1.4628,-1.4698,-1.4703,-1.4741,-1.4732,-1.4742,-1.4827,-1.4857,-1.4914,-1.4938,-1.4931,-1.504,-1.5024,-1.4995,-1.4944,-1.5043,-1.5086,-1.5103,-1.488,-1.4879,-1.4877,-1.4876,0,0,-1.427,-1.4356,-1.435,-1.4416,-1.4446,-1.4418,-1.4492,-1.4519,-1.4575,-1.4598,-1.4568,-1.4686,-1.4712,-1.4816,-1.4847,-1.487,-1.489,-1.4856,-1.4995,-1.5009,-1.5021,-1.5066,-1.5084,-1.4874,-1.4874,-1.4873,-1.4873,0,-1.4213,-1.4237,-1.431,-1.4337,-1.4377,-1.4384,-1.4401,-1.4437,-1.4447,-1.453,-1.4508,-1.456,-1.4655,-1.4686,-1.4714,-1.4842,-1.4825,-1.4859,-1.4927,-1.4983,-1.4998,-1.5011,-1.5058,-1.5075,-1.487,-1.487,-1.487,0,-1.4093,-1.4118,-1.4153,-1.4221,-1.4248,-1.4306,-1.4253,-1.4317,-1.4361,-1.433,-1.4414,-1.4431,-1.4473,-1.457,-1.4613,-1.4589,-1.4765,-1.4711,-1.4719,-1.4725,-1.4779,-1.4797,-1.4813,-1.4604,-1.4603,-1.4602,0,0,-1.4043,-1.4098,-1.4125,-1.421,-1.4228,-1.424,-1.4272,-1.4267,-1.4305,-1.432,-1.4343,-1.4381,-1.4436,-1.4473,-1.4525,-1.463,-1.4639,-1.4678,-1.469,-1.47,-1.4712,-1.4769,-1.4787,-1.4599,-1.4599,-1.4599,0,0,-1.402,-1.4054,-1.4039,-1.4137,-1.4172,-1.4206,-1.4258,-1.4242,-1.4289,-1.4282,-1.428,-1.429,-1.4381,-1.44,-1.435,-1.4508,-1.4457,-1.4469,-1.4493,-1.4509,-1.4521,-1.4516,-1.4303,0,0,0,0,0,-1.3965,-1.4049,-1.4035,-1.4053,-1.414,-1.4213,-1.4225,-1.4224,-1.4187,-1.4228,-1.4245,-1.4224,-1.4373,-1.4329,-1.4347,-1.4403,-1.4552,-1.456,-1.4568,-1.4623,-1.464,-1.4654,0,0,0,0,0,0,-1.3972,-1.3993,-1.4033,-1.407,-1.409,-1.421,-1.4148,-1.4151,-1.4183,-1.4178,-1.4221,-1.4225,-1.4227,-1.4319,-1.4336,-1.4389,-1.4297,-1.4555,-1.4562,-1.4569,-1.4629,-1.4642,-1.4654,0,0,0,0,0,-1.3977,-1.3994,-1.4134,-1.4069,-1.4086,-1.4105,-1.4145,-1.4147,-1.4172,-1.4199,-1.4202,-1.4169,-1.4228,-1.4242,-1.4329,-1.4382,-1.4286,-1.4292,-1.456,-1.4565,-1.457,-1.4636,0,0,0,0,0,0,-1.3981,-1.3996,-1.4138,-1.4143,-1.4037,-1.4098,-1.4108,-1.4143,-1.4191,-1.4195,-1.4146,-1.4141,-1.4231,-1.4241,-1.4252,-1.4379,-1.4277,-1.4283,-1.4287,-1.4564,-1.4568,-1.4572,0,0,0,0,0,0,-1.3987,-1.4001,-1.414,-1.41,-1.4101,-1.4092,-1.4101,-1.4175,-1.4192,-1.4136,-1.4133,-1.4143,-1.4215,-1.424,-1.4249,-1.4365,-1.427,-1.4276,-1.428,-1.4282,-1.4568,-1.4571,0,0,0,0,0,0,-1.3993,-1.4005,-1.4099,-1.41,-1.41,-1.4159,-1.4158,-1.4248,-1.4156,-1.4134,-1.4148,-1.4144,-1.4215,-1.4223,-1.4247,-1.4359,-1.4363,-1.427,-1.4274,-1.4277,-1.4279,0,0,0,0,0,0,0,-1.3998,-1.3918,-1.4107,-1.4099,-1.4099,-1.4191,-1.4193,-1.4194,-1.4155,-1.4152,-1.4148,-1.4145,-1.4236,-1.4242,-1.4249,-1.4355,0,0,-1.4269,-1.4272,0,0,0,0,0,0,0,0,-1.3913,-1.3917,-1.4107,-1.4108,-1.4109,-1.4191,-1.4193,-1.4194,-1.4154,-1.4152,-1.4149,-1.4147,-1.4238,-1.4243,-1.4248,0,0,0,0,0,0,0,0,0,0,0,0,0,0,0,-1.4107,-1.4108,0,-1.4192,-1.4193,-1.4194,-1.4154,-1.4152,-1.415,-1.4148,-1.4239,-1.4243,-1.4248,0,0,0,0,0,0,0,0,0,0,0,0,0,0,0,0,0,0,0,0,0,0,0,0,0,0,0,0,0,0,0,0,0,0,0,0,0,0,0,0,0,0,0,0,0,0,0,0,0,0,0,0,0,0,0,0,0,0,0,0,0,0,0,0,0,0,0,0,0]}],[{"header":{"parameterUnit":"kt","parameterCategory":2,"dx":1,"dy":1,"la1":30.253999710083008,"la2":30.299108505249023,"lo1":-89.0895004272461,"lo2":-89.04439544677734,"nx":28,"ny":28,"refTime":"2022-10-13T21:00:00:Z","depth":0,"parameterNumber":2,"parameterNumberName":"V-component_of_WINDS"},"data":[-9.1596,-9.1798,-9.1807,-9.204,-9.2086,-9.2246,-9.2306,-9.2383,-9.2445,-9.2635,-9.2744,-9.277,-9.2833,-9.2964,-9.3081,-9.3089,-9.3139,-9.3205,-9.3204,-9.2903,-9.2861,-9.2822,-9.2776,-9.3216,-9.3216,-9.3515,-9.3518,-9.352,-9.1376,-9.1425,-9.1551,-9.1678,-9.1785,-9.1727,-9.1822,-9.1915,-9.2058,-9.2136,-9.2245,-9.2411,-9.2541,-9.2582,-9.2708,-9.28,-9.2779,-9.2834,-9.2828,-9.2839,-9.2517,-9.2468,-9.2849,-9.2849,-9.2849,-9.2849,-9.2849,-9.2849,-9.0977,-9.1098,-9.118,-9.1316,-9.1381,-9.1466,-9.1581,-9.1611,-9.1732,-9.1867,-9.185,-9.2012,-9.2089,-9.2243,-9.2295,-9.2419,-9.2359,-9.2421,-9.2437,-9.2453,-9.2471,-9.2041,-9.244,-9.2439,-9.2438,-9.2437,-9.2437,0,-9.0688,-9.0687,-9.0807,-9.0931,-9.103,-9.1126,-9.1214,-9.1285,-9.1281,-9.1381,-9.1526,-9.1609,-9.1774,-9.1909,-9.2027,-9.2069,-9.2016,-9.201,-9.2053,-9.2066,-9.2062,-9.2068,-9.1544,-9.1999,-9.1995,-9.1992,-9.199,-9.1989,-9.0288,-9.0427,-9.0515,-9.0598,-9.0649,-9.0783,-9.0864,-9.085,-9.0937,-9.1041,-9.1147,-9.1282,-9.139,-9.1617,-9.1647,-9.1769,-9.1745,-9.1918,-9.1762,-9.1768,-9.1749,-9.1742,-9.1756,-9.1949,-9.1954,-9.1958,-9.1962,0,-9.0062,-9.0073,-9.029,-9.0363,-9.0385,-9.0531,-9.0591,-9.0709,-9.0724,-9.0888,-9.0925,-9.0949,-9.1089,-9.1091,-9.1251,-9.1248,-9.1485,-9.1457,-9.1459,-9.1454,-9.1611,-9.1597,-9.2116,-9.2184,-9.1726,-9.173,-9.1734,0,-8.9726,-8.9908,-8.9914,-9.0039,-9.024,-9.0221,-9.042,-9.0453,-9.052,-9.0649,-9.0589,-9.0711,-9.0694,-9.0816,-9.0811,-9.1005,-9.1034,-9.1043,-9.104,-9.105,-9.105,-9.1096,-9.1075,-9.1025,-9.1023,-9.102,-9.1018,0,-8.9372,-8.9587,-8.9791,-8.9841,-8.9936,-9.0031,-9.0074,-9.0148,-9.0227,-9.0329,-9.038,-9.0499,-9.0565,-9.0658,-9.0651,-9.0546,-9.0887,-9.0741,-9.0897,-9.0898,-9.0974,-9.0969,-9.1427,-9.1015,-9.1014,-9.1013,-9.1012,0,-8.9102,-8.9208,-8.9501,-8.9578,-8.9635,-8.9768,-8.9885,-8.9999,-9.0081,-9.0087,-9.0167,-9.0127,-9.0296,-9.0151,-9.0383,-9.0248,-9.0316,-9.034,-9.0351,-9.0367,-9.0205,-9.0466,-9.09,-9.0947,-9.0381,-9.0375,-9.0371,0,-8.8695,-8.8993,-8.8979,-8.9256,-8.9394,-8.9319,-8.9466,-8.954,-8.956,-8.9678,-8.9699,-8.9833,-8.9725,-8.9767,-8.9882,-8.9909,-9.0084,-8.9885,-9.0054,-9.0061,-9.0037,-9.0437,-9.0502,-9.0805,-9.0303,-9.031,-9.0315,0,-8.8381,-8.8495,-8.8546,-8.8603,-8.8699,-8.8813,-8.8981,-8.9111,-8.9191,-8.928,-8.942,-8.9607,-8.9534,-8.9604,-8.9584,-8.9703,-8.9964,-8.9608,-8.9609,-8.9673,-9.0269,-9.033,-9.0381,-8.9924,-8.9932,-8.9939,-9.0262,0,-8.7974,-8.8123,-8.826,-8.8387,-8.8475,-8.8648,-8.8651,-8.8743,-8.8716,-8.8733,-8.8938,-8.8998,-8.9128,-8.9185,-8.9158,-8.943,-8.9385,-8.9305,-8.9165,-8.9426,-8.9533,-8.9576,-8.9006,-8.9002,-8.8998,-8.8995,0,0,-8.7583,-8.7797,-8.7775,-8.7939,-8.8012,-8.7931,-8.8116,-8.8177,-8.8303,-8.8355,-8.8277,-8.855,-8.8602,-8.8851,-8.8933,-8.8985,-8.9034,-8.8942,-8.9301,-8.9335,-8.9367,-8.9481,-8.9526,-8.8989,-8.8988,-8.8986,-8.8985,0,-8.7435,-8.7493,-8.7676,-8.7739,-8.7831,-8.7841,-8.7885,-8.7961,-8.7981,-8.8182,-8.8111,-8.8234,-8.8452,-8.8517,-8.8579,-8.8912,-8.8851,-8.8951,-8.913,-8.9266,-8.9305,-8.9339,-8.9459,-8.9502,-8.8977,-8.8977,-8.8978,0,-8.7128,-8.7185,-8.7274,-8.7437,-8.7496,-8.7638,-8.7492,-8.7649,-8.7754,-8.7655,-8.7856,-8.7889,-8.7975,-8.821,-8.8314,-8.8246,-8.8686,-8.8546,-8.8568,-8.858,-8.8712,-8.8758,-8.88,-8.8254,-8.8251,-8.8249,0,0,-8.7,-8.7138,-8.7194,-8.7405,-8.7447,-8.7464,-8.7539,-8.7519,-8.76,-8.7632,-8.7674,-8.7754,-8.788,-8.7964,-8.8082,-8.8339,-8.8356,-8.8457,-8.8491,-8.8519,-8.8546,-8.8685,-8.8731,-8.8239,-8.8239,-8.8239,0,0,-8.6938,-8.7012,-8.697,-8.7216,-8.7296,-8.7364,-8.7492,-8.7442,-8.755,-8.753,-8.7502,-8.7522,-8.7741,-8.7776,-8.7649,-8.8032,-8.7893,-8.7924,-8.8002,-8.8045,-8.8079,-8.8066,-8.7507,0,0,0,0,0,-8.6789,-8.7002,-8.6964,-8.7006,-8.721,-8.7385,-8.7411,-8.7394,-8.7296,-8.7399,-8.7426,-8.7355,-8.7702,-8.7588,-8.7629,-8.7772,-8.8117,-8.8139,-8.8159,-8.832,-8.8365,-8.8403,0,0,0,0,0,0,-8.6805,-8.6856,-8.6958,-8.7036,-8.7081,-8.7377,-8.7208,-8.721,-8.7285,-8.7269,-8.7352,-8.7358,-8.7346,-8.7566,-8.7603,-8.7739,-8.7494,-8.8125,-8.8144,-8.816,-8.8335,-8.8372,-8.8404,0,0,0,0,0,-8.6818,-8.6859,-8.7191,-8.7032,-8.7072,-8.7101,-8.72,-8.72,-8.7258,-8.73,-8.7303,-8.7238,-8.735,-8.738,-8.7588,-8.7723,-8.7468,-8.7482,-8.8137,-8.8152,-8.8165,-8.8354,0,0,0,0,0,0,-8.6827,-8.6859,-8.7198,-8.721,-8.695,-8.7084,-8.7104,-8.7192,-8.7283,-8.7289,-8.7183,-8.7169,-8.7356,-8.7378,-8.7401,-8.7718,-8.7447,-8.7461,-8.747,-8.8148,-8.816,-8.817,0,0,0,0,0,0,-8.6837,-8.687,-8.7204,-8.7102,-8.7101,-8.7069,-8.7087,-8.726,-8.7285,-8.7161,-8.7152,-8.7176,-8.732,-8.7378,-8.7395,-8.7667,-8.7431,-8.7444,-8.7454,-8.746,-8.8158,-8.8167,0,0,0,0,0,0,-8.685,-8.6878,-8.7099,-8.7099,-8.7097,-8.7224,-8.7221,-8.7431,-8.7199,-8.7158,-8.7178,-8.7168,-8.7322,-8.7339,-8.7392,-8.7656,-8.7664,-8.7431,-8.744,-8.7447,-8.7451,0,0,0,0,0,0,0,-8.6861,-8.6678,-8.7131,-8.7096,-8.7094,-8.7315,-8.7318,-8.7321,-8.7197,-8.7188,-8.718,-8.7172,-8.7353,-8.7368,-8.7383,-8.7648,0,0,-8.743,-8.7437,0,0,0,0,0,0,0,0,-8.6666,-8.6675,-8.7132,-8.7134,-8.7136,-8.7316,-8.7318,-8.7321,-8.7196,-8.7189,-8.7182,-8.7175,-8.7357,-8.7369,-8.7382,0,0,0,0,0,0,0,0,0,0,0,0,0,0,0,-8.7132,-8.7134,0,-8.7316,-8.7318,-8.732,-8.7195,-8.7189,-8.7183,-8.7178,-8.7361,-8.7371,-8.7381,0,0,0,0,0,0,0,0,0,0,0,0,0,0,0,0,0,0,0,0,0,0,0,0,0,0,0,0,0,0,0,0,0,0,0,0,0,0,0,0,0,0,0,0,0,0,0,0,0,0,0,0,0,0,0,0,0,0,0,0,0,0,0,0,0,0,0,0,0]}]]]